Location: Byhalia Creek
(34.8270°N, 89.8040°W)
Time: 20:27:40
(UTC+00:00)

CZ-4B R/B - Pass Details

Date: 22 April 2026
Orbit: 462 x 562 km, 97.8° (Epoch: 21 May)

Event Time Altitude Azimuth Distance (km) Brightness Sun altitude
Exits shadow 02:06:06 21° 181° (S) 1,161 5.2 -17.8°
Maximum altitude 02:08:25 66° 259° (W) 562 4.0 -18.2°
Drops below altitude 10° 02:12:12 10° 342° (NNW) 1,770 7.1 -18.9°
Sets 02:14:22 0° 345° (NNW) 2,680 8.0 -19.3°
